Regional Weather Roundup
Issued by NWS Wakefield, VA

Home | Current Version | Previous Version | Text Only | Print | Product List | Glossary On
Versions: 1 2 3 4 5 6 7 8 9 10 11 12 13 14 15 16 17 18 19 20 21 22 23 24 25 26 27 28 29 30 31 32 33 34 35 36 37 38 39 40 41 42 43 44 45 46 47 48 49 50
000
ASUS41 KAKQ 211915
RWRAKQ

REGIONAL WEATHER ROUNDUP
NATIONAL WEATHER SERVICE WAKEFIELD VA
300 PM EDT SAT OCT 21 2017

Note: "fair" indicates few or no clouds below 12,000 feet with no
significant weather and/or obstructions to visibility. * = Denotes
station may not report precipitation (e.g., rain,snow,etc.),
thunder or fog.

VAZ042-051-052>054-056-212000-
NORTHERN VIRGINIA

CITY           SKY/WX    TMP DP  RH WIND       PRES   REMARKS
WASH NATIONAL  PTSUNNY   77  43  29 VRB5      30.31F
DULLES         PTSUNNY   76  43  30 VRB5      30.31F
FORT BELVOIR   SUNNY     77  42  28 S3        30.31F
QUANTICO       SUNNY     72  57  59 S5        30.32F
FREDERICKSBRG* SUNNY     77  42  27 S5        30.30S
STAFFORD*      SUNNY     76  42  29 CALM      30.36S
WARRENTON      SUNNY     79  36  20 S5        30.30F
CULPEPER*      SUNNY     78  41  26 CALM      30.31F
MANASSAS*      SUNNY     77  45  32 S6        30.31F
LEESBURG*      SUNNY     77  45  31 S7        30.32F
WINCHESTER     MOSUNNY   72  45  37 SE3       30.30F
FRONT ROYAL*   CLOUDY    75  46  35 CALM      30.29F
LURAY*         CLEAR     77  48  36 SE3       30.30F
$$

VAZ048-049-060>072-079>083-212000-
CENTRAL AND SOUTH CENTRAL VIRGINIA

CITY           SKY/WX    TMP DP  RH WIND       PRES   REMARKS
RICHMOND       PTSUNNY   77  48  35 SE6       30.31S
CHESTERFIELD*  NOT AVBL
PETERSBURG*    SUNNY     76  49  39 CALM      30.31S
HANOVER        SUNNY     78  47  33 VRB5      30.32F
TAPPAHANNOCK*  SUNNY     78  29  16 E3        30.32S
QUINTON*       FAIR      76  51  40 SE3       30.31S
CHARLOTTSVILLE SUNNY     78  48  34 CALM      30.30F
GORDONSVILLE*  CLEAR     77  48  36 CALM      30.30F
ORANGE*        SUNNY     77  46  33 SW5       30.30F
LOUISA*        SUNNY     75  48  38 CALM      30.31F
BUMPASS*       FAIR      76  49  38 CALM      30.31F
FARMVILLE*     SUNNY     80  51  36 S5        30.29F
CREWE*         FAIR      78  54  43 SE5       30.30F
FORT PICKETT*  FAIR      77  52  41 E3        30.31S
CHASE CITY*    FAIR      78  51  39 CALM      30.30F
CLARKSVILLE*   FAIR      77  52  41 N3        30.30F
SOUTH HILL*    SUNNY     77  55  45 CALM      30.36S
LAWRENCEVILLE* FAIR      77  51  40 CALM      30.30F
EMPORIA*       SUNNY     77  54  44 NE6       30.31F
$$

VAZ088>098-212000-
SOUTHEAST VIRGINIA

CITY           SKY/WX    TMP DP  RH WIND       PRES   REMARKS
NORFOLK        SUNNY     74  49  41 NE7       30.31F
VIRGINIA BEACH MOSUNNY   73  46  38 E9        30.31S
NORFOLK NAVAL  MOSUNNY   73  46  38 E8        30.33S
WEST POINT*    SUNNY     76  49  38 S6        30.32S
SALUDA*        FAIR      72  61  67 E5        30.32S
NEWPORT NEWS   SUNNY     74  53  48 E8        30.31F
LANGLEY AFB    SUNNY     74  51  44 E7        30.31F
FORT EUSTIS    SUNNY     80  52  38 CALM      30.28F
WILLIAMSBURG*  SUNNY     79  57  47 S6        30.32S
HR EXEC AP*    NOT AVBL
FRANKLIN*      SUNNY     78  52  40 CALM      30.30F
US460-WAKEFLD  SUNNY     78  54  43 VRB5      30.30F
$$

VAZ020-022-025-037-045-212000-
WEST CENTRAL AND SOUTHWEST VIRGINIA

CITY           SKY/WX    TMP DP  RH WIND       PRES   REMARKS
STAUNTON*      SUNNY     74  50  41 SW6       30.32F
WAYNESBORO*    CLEAR     73  52  48 SE6       30.32F
HOT SPRINGS VA CLOUDY    64  44  48 CALM      30.39F
LYNCHBURG      SUNNY     76  49  38 VRB3      30.31F
DANVILLE       SUNNY     77  53  43 CALM      30.31F
SOUTH BOSTON*  FAIR      78  49  36 CALM      30.30F
MARTINSVILLE   CLOUDY    76  50  39 CALM      30.34S
ROANOKE        CLOUDY    75  52  44 SE6       30.32F
BLACKSBURG     MOSUNNY   73  49  42 CALM      30.35F
DUBLIN*        SUNNY     74  49  40 CALM      30.33F
MARION*        MOSUNNY   75  38  26 CALM      30.35F
HILLSVILLE*    CLOUDY    70  42  36 CALM      30.34F
RICHLANDS*     FAIR      73 -38   1 CALM      30.33F
WISE*          MOSUNNY   72  45  37 SE3       30.34F
ABINGDON*      MOSUNNY   77  36  22 CALM      30.30F
$$

MDZ021>025-VAZ099-100-212000-
SOUTHERN MARYLAND AND THE DELMARVA PENINSULA

CITY           SKY/WX    TMP DP  RH WIND       PRES   REMARKS
PATUXENT RIVER MOSUNNY   73  49  42 E6        30.31F
BAY BRIDGE APT SUNNY     70  52  52 W5        30.32F
LEONARDTOWN    NOT AVBL
DOVER          SUNNY     75  49  39 E7        30.30F
GEORGETOWN     SUNNY     77  47  34 SE6       30.31F
EASTON         NOT AVBL
CAMBRIDGE      SUNNY     75  43  31 SE6       30.31F
SALISBURY      SUNNY     76  47  35 VRB3      30.31F
OCEAN CITY     SUNNY     70  60  70 E7        30.33F
WALLOPS ISLAND SUNNY     73  57  57 NE7       30.32F
ACCOMACK*      SUNNY     76  46  33 SE5       30.31S
$$

NCZ012>017-030>032-212000-
NORTH CENTRAL AND EASTERN NORTH CAROLINA

CITY           SKY/WX    TMP DP  RH WIND       PRES   REMARKS
ROANOKE RAPIDS FAIR      77  54  44 SW3       30.30F
RALEIGH        PTSUNNY   77  50  38 SE6       30.31S
ELIZABETH CITY SUNNY     77  56  48 E8        30.31S
AHOSKIE*       SUNNY     76  53  45 CALM      30.31S
EDENTON*       SUNNY     76  58  52 CALM      30.32S
CURRITUCK*     SUNNY     73  56  55 NE7       30.32F
KILL DEVIL HLS SUNNY     72  57  60 CALM      30.31F
MANTEO         SUNNY    N/A N/A N/A E9        30.32F
CAPE HATTERAS  SUNNY     75  61  61 VRB3      30.31F
TARBORO*       NOT AVBL
GOLDSBORO      SUNNY     80  49  34 N3        30.28F
WASHINGTON     SUNNY     78  55  44 CALM      30.30F
GREENVILLE     SUNNY     79  52  38 S3        30.31F
NEW BERN       SUNNY     77  55  46 VRB6      30.31F
WILMINGTON     SUNNY     77  58  51 SE8       30.29F
$$

VAZ048-212000-
ELSEWHERE

CITY           SKY/WX    TMP DP  RH WIND       PRES   REMARKS
HARRISBURG PA  PTSUNNY   71  52  50 CALM      30.30F
BALTIMORE      PTSUNNY   75  39  27 E5        30.31F
ANNAPOLIS      SUNNY     72  53  51 SE8       30.32F
ANDREWS AFB    SUNNY     75  41  29 CALM      30.31F
PHILADELPHIA   CLOUDY    77  40  26 CALM      30.31F
HENDERSON NC   SUNNY     75  51  42 E5        30.31S
GREENSBORO     CLOUDY    75  51  43 SE6       30.30F
ROCKY MOUNT    SUNNY     77  54  44 CALM      30.30F
$$

VAZ100-212000-
MARINE

STATION/POSITION TIME  TEMP    WIND        PRES    WAVE   SWELL
                       AIR SEA DIR/SP/G            HT/PER HT/PER
                 (UTC) (F)     (DEG/KT/KT) (MB)    (FT/S) (FT/S)
BRANDYWINE LGT   1836   72      CALM  /  1 1027.2F
CAPE MAY NJ      1848   71 66  170/  3/  5 1026.4F
LEWES DE         1848   72 66  160/  5/  8 1026.4F
15NM E FENWICK I 1850   68 69   70/  2/  2 1027.3F   2/ 8   2/ 8
OCEAN-CITY-INLET 1848   69 67   90/  4/  6 1027.3F
WACHAPREAGUE VA  1848   71 69   80/  7/  9 1026.6S
THOMAS POINT MD  1900   71 68   CALM  /  1   N/A
GOOSES REEF MD   1900   70 71  330/  2/  4 1034.6    0
COVE POINT MD    1848   69     350/  4/  4 1027.2F
SOLOMONS ISLAND  1848   69 70  100/  7/  7 1026.1F
BISHOPS HEAD MD  1848   70 67   CALM  /  1 1027.0F
PINEY POINT MD   1836          180/  6/  6   N/A
POTOMAC MD       1900   69 69   90/  6/  6 1026.1    0
CAMBRIDGE MD     1836   76 69              1027.3F
LEWISETTA VA     1848   68 66  110/  7/  7 1026.5F
RAPPAHANNOCK LGT 1848          360/  7/  8 1027.2F
STINGRAY PT      1900   69 69   90/  6/  6 1027.0    1
YORK RVR RNG VA  1836   71     100/  5/  6 1027.2F
YORKTOWN VA      1848   70 70   90/  8/  8 1026.1F
JAMESTOWN VA     1900      71  170/  6/  6   N/A     0
DOMINION TERM VA 1848   72      50/  1/  5 1026.7F
KIPTOPEKE VA     1848      67  250/  2/  3   N/A
CAPE HENRY VA    1848   69      70/  6/  6   N/A
WILLOUBY STN VA  1836   69      80/  6/  6 1026.6F
S CRANEY ISL VA  1848   72      50/  5/  6 1026.2F
CAPE HENRY BUOY  1900      71                N/A     2/ 8
1ST LANDING BUOY 1900   69 70              1026.5    1
CAPE CHARLES BUO 1851      71                N/A     2/ 8
64NM E OF VA BCH 1850   68 70   30/  6/  8 1027.1F   2/ 8   2/ 8
DUCK PIER NC     1848   70 70   60/  9/  9 1026.3F
44100 DUCK FRF   1805      71                N/A     2/ 8
44056 DUCK FRF   1900      71                N/A     2/ 8
OREGON INLET NC  1836   70 69   40/  7/  9 1026.5F
HATTERAS NC      1848   70 72   20/ 11/ 12 1026.2F
DIAMOND SHLS NC  1850   73 81  360/ 12/ 16 1025.9F   3/ 9   3/ 9
CAPE LOOKOUT NC  1900   72      50/ 11/ 13 1025.8F
$$



USA.gov is the U.S. government's official web portal to all federal, state and local government web resources and services.